When you browse on this site, cookies collect data to enhance your experience and personalize the content and advertising you see.
Visit our Privacy Policy to learn more. By continuing to use the site, you agree to this use of cookies and data.
  • In Hungary
  • List of Countries
  • For 7 days
  • Water Temperature
  • Satellite Maps
  • Weather Map
  • News
  • Weather Widgets
  • user-avatar
    Login

    Hourly Weather Cestas

    Today, 19 March, Tuesday

    Time Temperature Precipitation Wind Pressure Humidity
    00:00 +9°C° 0.4 mm 1 mps 765 mmHg 89%
    01:00 +8°C° 0 mm 1 mps 765 mmHg 91%
    02:00 +8°C° 0 mm 1 mps 765 mmHg 93%
    03:00 +7°C° 0 mm 1 mps 765 mmHg 94%
    04:00 +7°C° 0 mm 1 mps 765 mmHg 95%
    05:00 +6°C° 0 mm 1 mps 765 mmHg 95%
    06:00 +6°C° 0 mm 1 mps 765 mmHg 96%
    07:00 +7°C° 0 mm 1 mps 765 mmHg 90%
    08:00 +8°C° 0 mm 1 mps 766 mmHg 84%
    09:00 +10°C° 0 mm 1 mps 766 mmHg 78%
    10:00 +10°C° 0 mm 2 mps 766 mmHg 69%
    11:00 +13°C° 0 mm 2 mps 766 mmHg 61%
    12:00 +14°C° 0 mm 2 mps 767 mmHg 53%
    13:00 +13°C° 0 mm 3 mps 767 mmHg 52%
    14:00 +14°C° 0 mm 3 mps 766 mmHg 50%
    15:00 +14°C° 0 mm 3 mps 766 mmHg 49%
    16:00 +13°C° 0 mm 3 mps 766 mmHg 54%
    17:00 +12°C° 0 mm 3 mps 767 mmHg 60%
    18:00 +10°C° 0 mm 2 mps 767 mmHg 66%
    19:00 +9°C° 0 mm 2 mps 767 mmHg 71%
    20:00 +9°C° 0 mm 2 mps 768 mmHg 77%
    21:00 +8°C° 0 mm 2 mps 768 mmHg 83%
    22:00 +7°C° 0 mm 2 mps 769 mmHg 85%
    23:00 +7°C° 0 mm 2 mps 769 mmHg 87%

    Tomorrow, 20 March, Wednesday

    Time Temperature Precipitation Wind Pressure Humidity
    00:00 +6°C° 0 mm 2 mps 769 mmHg 89%
    01:00 +6°C° 0 mm 2 mps 769 mmHg 88%
    02:00 +6°C° 0 mm 1 mps 769 mmHg 88%
    03:00 +6°C° 0 mm 1 mps 769 mmHg 87%
    04:00 +6°C° 0 mm 1 mps 769 mmHg 87%
    05:00 +5°C° 0 mm 1 mps 769 mmHg 87%
    06:00 +5°C° 0 mm 1 mps 769 mmHg 87%
    07:00 +6°C° 0 mm 2 mps 769 mmHg 78%
    08:00 +8°C° 0 mm 2 mps 770 mmHg 69%
    09:00 +10°C° 0 mm 2 mps 770 mmHg 60%
    10:00 +12°C° 0 mm 2 mps 770 mmHg 52%
    11:00 +14°C° 0 mm 2 mps 770 mmHg 44%
    12:00 +14°C° 0 mm 3 mps 769 mmHg 35%
    13:00 +14°C° 0 mm 3 mps 769 mmHg 34%
    14:00 +16°C° 0 mm 3 mps 769 mmHg 33%
    15:00 +16°C° 0 mm 3 mps 768 mmHg 33%
    16:00 +14°C° 0 mm 3 mps 768 mmHg 39%
    17:00 +13°C° 0 mm 3 mps 768 mmHg 45%
    18:00 +12°C° 0 mm 2 mps 768 mmHg 52%
    19:00 +10°C° 0 mm 2 mps 768 mmHg 56%
    20:00 +9°C° 0 mm 2 mps 769 mmHg 59%
    21:00 +8°C° 0 mm 3 mps 769 mmHg 63%
    22:00 +8°C° 0 mm 2 mps 769 mmHg 66%
    23:00 +7°C° 0 mm 2 mps 769 mmHg 69%

    Day after tomorrow, 21 March, Thursday

    Time Temperature Precipitation Wind Pressure Humidity
    00:00 +6°C° 0 mm 2 mps 769 mmHg 72%
    01:00 +6°C° 0 mm 2 mps 769 mmHg 74%
    02:00 +6°C° 0 mm 1 mps 768 mmHg 76%
    03:00 +6°C° 0 mm 1 mps 768 mmHg 78%
    04:00 +5°C° 0 mm 1 mps 768 mmHg 79%
    05:00 +5°C° 0 mm 1 mps 768 mmHg 81%
    06:00 +4°C° 0 mm 1 mps 768 mmHg 82%
    07:00 +6°C° 0 mm 1 mps 769 mmHg 74%
    08:00 +8°C° 0 mm 1 mps 769 mmHg 66%
    09:00 +10°C° 0 mm 1 mps 769 mmHg 58%
    10:00 +12°C° 0 mm 1 mps 769 mmHg 51%
    11:00 +15°C° 0 mm 1 mps 769 mmHg 45%
    12:00 +18°C° 0 mm 1 mps 768 mmHg 38%
    13:00 +18°C° 0 mm 1 mps 768 mmHg 37%
    14:00 +18°C° 0 mm 1 mps 768 mmHg 35%
    15:00 +19°C° 0 mm 1 mps 767 mmHg 34%
    16:00 +16°C° 0 mm 1 mps 767 mmHg 39%
    17:00 +15°C° 0 mm 1 mps 767 mmHg 45%
    18:00 +13°C° 0 mm 1 mps 767 mmHg 51%
    19:00 +12°C° 0 mm 1 mps 767 mmHg 55%
    20:00 +11°C° 0 mm 1 mps 767 mmHg 58%
    21:00 +10°C° 0 mm 1 mps 768 mmHg 62%
    22:00 +8°C° 0 mm 0 mps 768 mmHg 65%
    23:00 +8°C° 0 mm 0 mps 768 mmHg 67%

    22 March, Friday

    Time Temperature Precipitation Wind Pressure Humidity
    00:00 +7°C° 0 mm 0 mps 767 mmHg 70%
    01:00 +7°C° 0 mm 0 mps 767 mmHg 71%
    02:00 +7°C° 0 mm 0 mps 767 mmHg 71%
    03:00 +6°C° 0 mm 0 mps 767 mmHg 72%
    04:00 +6°C° 0 mm 0 mps 767 mmHg 73%
    05:00 +7°C° 0 mm 1 mps 767 mmHg 74%
    06:00 +6°C° 0 mm 1 mps 767 mmHg 75%
    07:00 +9°C° 0 mm 1 mps 767 mmHg 67%
    08:00 +11°C° 0 mm 1 mps 768 mmHg 59%
    09:00 +13°C° 0 mm 1 mps 768 mmHg 51%
    10:00 +15°C° 0 mm 0 mps 768 mmHg 46%
    11:00 +17°C° 0 mm 0 mps 768 mmHg 40%
    12:00 +19°C° 0 mm 0 mps 767 mmHg 34%
    13:00 +19°C° 0 mm 0 mps 767 mmHg 33%
    14:00 +19°C° 0 mm 0 mps 767 mmHg 32%
    15:00 +22°C° 0 mm 1 mps 766 mmHg 31%
    16:00 +20°C° 0 mm 1 mps 766 mmHg 37%
    17:00 +18°C° 0 mm 1 mps 766 mmHg 43%
    18:00 +16°C° 0 mm 1 mps 766 mmHg 48%
    19:00 +14°C° 0 mm 1 mps 766 mmHg 52%
    20:00 +13°C° 0 mm 1 mps 766 mmHg 55%
    21:00 +12°C° 0 mm 1 mps 766 mmHg 59%
    22:00 +11°C° 0 mm 1 mps 766 mmHg 61%
    23:00 +11°C° 0 mm 1 mps 766 mmHg 62%

    23 March, Saturday

    Time Temperature Precipitation Wind Pressure Humidity
    00:00 +10°C° 0 mm 1 mps 766 mmHg 64%
    01:00 +10°C° 0 mm 1 mps 766 mmHg 65%
    02:00 +10°C° 0 mm 1 mps 765 mmHg 67%
    03:00 +9°C° 0 mm 1 mps 765 mmHg 68%
    04:00 +8°C° 0 mm 2 mps 765 mmHg 69%
    05:00 +8°C° 0 mm 2 mps 765 mmHg 70%
    06:00 +7°C° 0 mm 2 mps 765 mmHg 71%
    07:00 +9°C° 0 mm 2 mps 765 mmHg 65%
    08:00 +12°C° 0 mm 2 mps 765 mmHg 59%
    09:00 +15°C° 0 mm 2 mps 765 mmHg 52%
    10:00 +17°C° 0 mm 2 mps 765 mmHg 47%
    11:00 +19°C° 0 mm 2 mps 764 mmHg 41%
    12:00 +21°C° 0 mm 2 mps 764 mmHg 36%
    13:00 +23°C° 0 mm 2 mps 764 mmHg 34%
    14:00 +23°C° 0 mm 2 mps 763 mmHg 33%
    15:00 +24°C° 0 mm 1 mps 763 mmHg 31%
    16:00 +22°C° 0 mm 1 mps 763 mmHg 38%
    17:00 +19°C° 0 mm 2 mps 762 mmHg 44%
    18:00 +18°C° 0 mm 2 mps 762 mmHg 51%
    19:00 +16°C° 0 mm 2 mps 763 mmHg 54%
    20:00 +15°C° 0 mm 2 mps 763 mmHg 58%
    21:00 +14°C° 0 mm 1 mps 763 mmHg 61%
    22:00 +13°C° 0 mm 2 mps 763 mmHg 63%
    23:00 +12°C° 0 mm 2 mps 763 mmHg 64%

    24 March, Sunday

    Time Temperature Precipitation Wind Pressure Humidity
    00:00 +12°C° 0 mm 2 mps 763 mmHg 66%
    01:00 +10°C° 0 mm 2 mps 763 mmHg 64%
    02:00 +10°C° 0 mm 2 mps 763 mmHg 62%
    03:00 +9°C° 0 mm 2 mps 762 mmHg 60%
    04:00 +8°C° 0 mm 2 mps 763 mmHg 59%
    05:00 +8°C° 0 mm 2 mps 763 mmHg 57%
    06:00 +7°C° 0 mm 2 mps 763 mmHg 56%
    07:00 +9°C° 0 mm 2 mps 763 mmHg 52%
    08:00 +12°C° 0 mm 2 mps 763 mmHg 49%
    09:00 +14°C° 0 mm 2 mps 763 mmHg 45%
    10:00 +16°C° 0 mm 2 mps 763 mmHg 43%
    11:00 +18°C° 0 mm 2 mps 763 mmHg 41%
    12:00 +20°C° 0 mm 3 mps 763 mmHg 39%
    13:00 +20°C° 0 mm 3 mps 763 mmHg 39%
    14:00 +21°C° 0 mm 3 mps 762 mmHg 39%
    15:00 +21°C° 0 mm 3 mps 762 mmHg 39%
    16:00 +20°C° 0 mm 2 mps 762 mmHg 45%
    17:00 +19°C° 0 mm 2 mps 762 mmHg 50%
    18:00 +17°C° 0 mm 2 mps 761 mmHg 56%
    19:00 +16°C° 0 mm 2 mps 762 mmHg 61%
    20:00 +15°C° 0 mm 2 mps 762 mmHg 65%
    21:00 +14°C° 0 mm 2 mps 762 mmHg 69%
    22:00 +13°C° 0 mm 2 mps 763 mmHg 73%
    23:00 +13°C° 0 mm 2 mps 763 mmHg 76%
    Show more